Weather in Nikolayev

Russia / Rostov Oblast     48°01′00″N   41°44′12″E
temp.,
°C
wind,
m/s
gust,
m/s
humid.,
%
clouds,
%
prec.,
mm/h
press.,
hPa
HPBL,
m
19 january, wed
wed1900:00−5ssw389689 0.1 1012112
03:00−6sw359974 0.1 101360
06:00−10wsw229697 0.0 101535
09:00−8ssw369868 0.0 1017104
12:00−4sw468976 0.0 1017585
15:00−3wsw248676 0.1 1017419
18:00−7w119542 0.1 101810
21:00−11wnw119438 0.1 101810
20 january, thu
thu2000:00−11wnw229697 0.0 101912
03:00−12nw229982 0.0 101930
06:00−12nw239893 0.0 102058
09:00−12wnw229628 0.1 102053
12:00−9w238987 0.0 1020258
15:00−7wsw3588100 0.1 1020491
18:00−11sw119781 0.0 102010
21:00−12sse229733 0.0 102010
21 january, fri
fri2100:00−11sse239995 0.0 102044
03:00−10sse369584 0.0 101882
06:00−6sse4896100 0.1 1016198
09:00−4sse61296100 1.3 1015392
12:000s71599100 1.5 1013684
15:00+1ssw71499100 3.6 1012665
18:00+1ssw61398100 0.1 1012532
21:000sw51098100 0.4 1012417
22 january, sat
sat2200:000w3698100 0.8 1014305
03:00−2sw2498100 1.8 1014166
06:00−3wsw3697100 1.3 1014284
09:00−3ssw2497100 1.6 1016183
12:00−2ssw2394100 0.4 1016285
15:00−2ssw2393100 1.0 1016308
18:00−3sse2397100 0.0 101755
21:00−6sse1299100 0.0 101810
23 january, sun
sun2300:00−6ene119994 0.0 101910
03:00−6ne3698100 0.0 101986
06:00−5ne51090100 0.0 1018265
09:00−4nne61296100 0.1 1018360
12:00−2ne71395100 0.4 1016513
15:00−2ne71197100 2.1 1015477
18:00−2ne61197100 0.5 1015412
21:000e71299100 1.6 1015469